• In Belgium
  • List of Countries
  • For 7 days
  • Water Temperature
  • Satellite Maps
  • Weather Map
  • Weather Widgets
  • user-avatar
    Login

    Hourly Weather Andenne

    Today, 20 October, Friday

    Time Temperature Precipitation Wind Pressure Humidity
    00:00 +17°C° 0 mm 4 mps 746 mmHg 67%
    01:00 +17°C° 0.1 mm 4 mps 746 mmHg 71%
    02:00 +15°C° 0.1 mm 5 mps 745 mmHg 75%
    03:00 +15°C° 0.1 mm 5 mps 745 mmHg 78%
    04:00 +15°C° 0.2 mm 5 mps 746 mmHg 81%
    05:00 +14°C° 0.2 mm 6 mps 746 mmHg 84%
    06:00 +13°C° 0 mm 5 mps 746 mmHg 90%
    07:00 +13°C° 0.2 mm 6 mps 746 mmHg 85%
    08:00 +12°C° 0.2 mm 7 mps 746 mmHg 81%
    09:00 +12°C° 0.2 mm 8 mps 747 mmHg 76%
    10:00 +13°C° 0 mm 8 mps 747 mmHg 73%
    11:00 +13°C° 0 mm 8 mps 748 mmHg 69%
    12:00 +13°C° 0 mm 8 mps 748 mmHg 66%
    13:00 +14°C° 0 mm 7 mps 748 mmHg 67%
    14:00 +14°C° 0 mm 7 mps 749 mmHg 67%
    15:00 +14°C° 0 mm 6 mps 749 mmHg 68%
    16:00 +13°C° 0 mm 5 mps 749 mmHg 71%
    17:00 +12°C° 0 mm 4 mps 749 mmHg 75%
    18:00 +11°C° 0 mm 3 mps 750 mmHg 78%
    19:00 +10°C° 0 mm 3 mps 750 mmHg 80%
    20:00 +10°C° 0 mm 3 mps 750 mmHg 82%
    21:00 +9°C° 0 mm 3 mps 750 mmHg 84%
    22:00 +10°C° 0 mm 3 mps 750 mmHg 82%
    23:00 +10°C° 0 mm 4 mps 750 mmHg 80%

    Tomorrow, 21 October, Saturday

    Time Temperature Precipitation Wind Pressure Humidity
    00:00 +11°C° 0 mm 4 mps 750 mmHg 78%
    01:00 +11°C° 0 mm 4 mps 749 mmHg 78%
    02:00 +11°C° 0 mm 4 mps 749 mmHg 79%
    03:00 +10°C° 0 mm 5 mps 748 mmHg 80%
    04:00 +10°C° 0 mm 5 mps 748 mmHg 83%
    05:00 +11°C° 0 mm 6 mps 748 mmHg 86%
    06:00 +11°C° 0 mm 6 mps 748 mmHg 89%
    07:00 +13°C° 0.5 mm 6 mps 748 mmHg 89%
    08:00 +13°C° 0.5 mm 6 mps 748 mmHg 90%
    09:00 +14°C° 0.5 mm 6 mps 748 mmHg 91%
    10:00 +14°C° 0.2 mm 6 mps 748 mmHg 88%
    11:00 +14°C° 0.2 mm 6 mps 748 mmHg 86%
    12:00 +14°C° 0.2 mm 6 mps 749 mmHg 83%
    13:00 +14°C° 0.1 mm 6 mps 748 mmHg 79%
    14:00 +14°C° 0.1 mm 6 mps 748 mmHg 76%
    15:00 +14°C° 0.1 mm 6 mps 748 mmHg 72%
    16:00 +13°C° 0 mm 5 mps 748 mmHg 74%
    17:00 +12°C° 0 mm 5 mps 749 mmHg 76%
    18:00 +10°C° 0 mm 5 mps 749 mmHg 77%
    19:00 +10°C° 0 mm 5 mps 749 mmHg 77%
    20:00 +10°C° 0 mm 5 mps 749 mmHg 76%
    21:00 +9°C° 0 mm 6 mps 749 mmHg 75%
    22:00 +9°C° 0 mm 6 mps 749 mmHg 75%
    23:00 +9°C° 0 mm 6 mps 749 mmHg 76%

    Day after tomorrow, 22 October, Sunday

    Time Temperature Precipitation Wind Pressure Humidity
    00:00 +9°C° 0 mm 7 mps 749 mmHg 76%
    01:00 +8°C° 0 mm 7 mps 749 mmHg 76%
    02:00 +8°C° 0 mm 7 mps 749 mmHg 76%
    03:00 +8°C° 0 mm 7 mps 749 mmHg 77%
    04:00 +8°C° 0.1 mm 7 mps 749 mmHg 78%
    05:00 +8°C° 0.1 mm 7 mps 749 mmHg 79%
    06:00 +8°C° 0.1 mm 7 mps 749 mmHg 81%
    07:00 +8°C° 0.2 mm 7 mps 749 mmHg 81%
    08:00 +8°C° 0.2 mm 7 mps 749 mmHg 82%
    09:00 +9°C° 0.2 mm 7 mps 749 mmHg 82%
    10:00 +9°C° 0.3 mm 7 mps 749 mmHg 82%
    11:00 +9°C° 0.3 mm 7 mps 749 mmHg 83%
    12:00 +9°C° 0.3 mm 7 mps 749 mmHg 83%
    13:00 +9°C° 0.3 mm 7 mps 749 mmHg 82%
    14:00 +9°C° 0.3 mm 7 mps 749 mmHg 82%
    15:00 +9°C° 0.3 mm 6 mps 750 mmHg 81%
    16:00 +9°C° 0.2 mm 6 mps 750 mmHg 82%
    17:00 +8°C° 0.2 mm 5 mps 750 mmHg 83%
    18:00 +8°C° 0.2 mm 5 mps 750 mmHg 83%
    19:00 +8°C° 0.1 mm 5 mps 751 mmHg 85%
    20:00 +8°C° 0.1 mm 5 mps 751 mmHg 86%
    21:00 +7°C° 0.1 mm 5 mps 751 mmHg 87%
    22:00 +8°C° 0.2 mm 5 mps 751 mmHg 88%
    23:00 +8°C° 0.2 mm 5 mps 751 mmHg 88%

    23 October, Monday

    Time Temperature Precipitation Wind Pressure Humidity
    00:00 +8°C° 0.2 mm 5 mps 751 mmHg 88%
    01:00 +8°C° 0.1 mm 5 mps 751 mmHg 89%
    02:00 +8°C° 0.1 mm 5 mps 751 mmHg 89%
    03:00 +7°C° 0.1 mm 5 mps 751 mmHg 89%
    04:00 +7°C° 0 mm 5 mps 751 mmHg 90%
    05:00 +7°C° 0 mm 4 mps 752 mmHg 91%
    06:00 +7°C° 0 mm 4 mps 752 mmHg 92%
    07:00 +8°C° 0 mm 4 mps 752 mmHg 91%
    08:00 +9°C° 0 mm 5 mps 752 mmHg 89%
    09:00 +10°C° 0 mm 5 mps 753 mmHg 88%
    10:00 +10°C° 0.6 mm 5 mps 753 mmHg 89%
    11:00 +10°C° 0.6 mm 5 mps 753 mmHg 90%
    12:00 +10°C° 0.6 mm 5 mps 753 mmHg 91%
    13:00 +11°C° 1.2 mm 4 mps 753 mmHg 92%
    14:00 +11°C° 1.2 mm 4 mps 753 mmHg 93%
    15:00 +11°C° 1.2 mm 4 mps 752 mmHg 95%
    16:00 +11°C° 0.8 mm 4 mps 753 mmHg 95%
    17:00 +12°C° 0.8 mm 4 mps 753 mmHg 95%
    18:00 +12°C° 0.8 mm 4 mps 753 mmHg 96%
    19:00 +12°C° 0.4 mm 3 mps 753 mmHg 96%
    20:00 +12°C° 0.4 mm 3 mps 753 mmHg 97%
    21:00 +13°C° 0.4 mm 3 mps 753 mmHg 98%
    22:00 +14°C° 0.2 mm 2 mps 754 mmHg 98%
    23:00 +14°C° 0.2 mm 2 mps 754 mmHg 98%

    24 October, Tuesday

    Time Temperature Precipitation Wind Pressure Humidity
    00:00 +14°C° 0.2 mm 2 mps 754 mmHg 98%
    01:00 +14°C° 0.1 mm 2 mps 754 mmHg 98%
    02:00 +14°C° 0.1 mm 2 mps 754 mmHg 98%
    03:00 +14°C° 0.1 mm 1 mps 754 mmHg 98%
    04:00 +14°C° 0 mm 2 mps 755 mmHg 98%
    05:00 +14°C° 0 mm 2 mps 755 mmHg 98%
    06:00 +14°C° 0 mm 2 mps 755 mmHg 98%
    07:00 +14°C° 0 mm 2 mps 755 mmHg 96%
    08:00 +15°C° 0 mm 2 mps 756 mmHg 94%
    09:00 +16°C° 0 mm 3 mps 756 mmHg 93%
    10:00 +16°C° 0 mm 3 mps 756 mmHg 89%
    11:00 +17°C° 0 mm 3 mps 756 mmHg 86%
    12:00 +18°C° 0 mm 3 mps 756 mmHg 83%
    13:00 +18°C° 0 mm 3 mps 756 mmHg 84%
    14:00 +17°C° 0 mm 3 mps 756 mmHg 86%
    15:00 +17°C° 0 mm 3 mps 756 mmHg 87%
    16:00 +17°C° 0 mm 3 mps 756 mmHg 90%
    17:00 +16°C° 0 mm 3 mps 756 mmHg 92%
    18:00 +14°C° 0 mm 3 mps 756 mmHg 95%
    19:00 +14°C° 0 mm 3 mps 757 mmHg 95%
    20:00 +14°C° 0 mm 3 mps 757 mmHg 95%
    21:00 +14°C° 0 mm 3 mps 757 mmHg 96%
    22:00 +14°C° 0 mm 3 mps 757 mmHg 96%
    23:00 +14°C° 0 mm 3 mps 757 mmHg 96%

    25 October, Wednesday

    Time Temperature Precipitation Wind Pressure Humidity
    00:00 +14°C° 0 mm 3 mps 757 mmHg 96%
    01:00 +13°C° 0 mm 3 mps 757 mmHg 96%
    02:00 +14°C° 0 mm 2 mps 757 mmHg 96%
    03:00 +13°C° 0 mm 2 mps 757 mmHg 96%
    04:00 +13°C° 0 mm 2 mps 757 mmHg 96%
    05:00 +13°C° 0 mm 2 mps 757 mmHg 96%
    06:00 +13°C° 0 mm 2 mps 757 mmHg 96%
    07:00 +14°C° 0 mm 2 mps 757 mmHg 92%
    08:00 +15°C° 0 mm 2 mps 758 mmHg 88%
    09:00 +16°C° 0 mm 3 mps 758 mmHg 84%
    10:00 +17°C° 0 mm 3 mps 758 mmHg 79%
    11:00 +19°C° 0 mm 2 mps 757 mmHg 74%
    12:00 +20°C° 0 mm 2 mps 757 mmHg 69%
    13:00 +20°C° 0 mm 2 mps 757 mmHg 70%
    14:00 +20°C° 0 mm 2 mps 757 mmHg 72%
    15:00 +20°C° 0 mm 2 mps 756 mmHg 73%
    16:00 +18°C° 0 mm 2 mps 756 mmHg 78%
    17:00 +16°C° 0 mm 2 mps 756 mmHg 83%
    18:00 +15°C° 0 mm 2 mps 756 mmHg 88%
    19:00 +13°C° 0 mm 3 mps 756 mmHg 87%
    20:00 +13°C° 0 mm 3 mps 756 mmHg 86%
    21:00 +13°C° 0 mm 3 mps 756 mmHg 85%
    22:00 +12°C° 0 mm 3 mps 756 mmHg 83%
    23:00 +12°C° 0 mm 3 mps 756 mmHg 81%
    Show more